Date String (YYYY-MM-DD hh:mm:ss) UTC,Instrument flags,absolute air pressure of the measurement (hPa),sample flow rate (lpm),inlet stack bypass flow (lpm),air temperature of the measurement (°C),ambient temperature measured by the external sensor (°C),aerosol sample conditioner tube jacket temperature (°C),OPC LED temperature (°C),internal box temperature (°C),relative humidity of the measurement (%),span deviation,mass concentration of particles derived from Lorenz-Mie calculation of OPC scattering (μg/m³),mass concentration of particles derived from Lorenz-Mie calculation of OPC scattering (μg/m³),mass concentration of particles derived from Lorenz-Mie calculation of OPC scattering (μg/m³)
DateTimeUTC,F1_M11,P_M11,Q1_M11,Q2_M11,T1_M11,T2_M11,T3_M11,T4_M11,T5_M11,U1_M11,ZSPAN_M11,X0_M11,X2_M11,X1_M11
2024-05-30 17:00:00,SystemResetWarning,0829.4,5.00,000.00,030.5,029.8,000.0,038.8,032.2,019.0,0000.0,0014.96,0004.18,0003.19
2024-05-30 17:01:00,SystemResetWarning,0829.3,5.01,000.00,030.5,029.8,000.0,038.8,032.2,018.6,0000.0,0014.29,0004.12,0003.19
2024-05-30 17:02:00,SystemResetWarning,0829.3,5.00,000.00,030.5,029.9,000.0,038.8,032.3,018.4,0000.0,0014.35,0004.15,0003.20
2024-05-30 17:03:00,SystemResetWarning,0829.3,4.99,000.00,030.6,029.9,000.0,038.8,032.3,018.5,0000.0,0014.36,0004.18,0003.20
2024-05-30 17:04:00,SystemResetWarning,0829.3,4.99,000.00,030.6,029.9,000.0,038.8,032.3,018.8,0000.0,0014.34,0004.22,0003.22
2024-05-30 17:05:00,SystemResetWarning,0829.3,5.01,000.00,030.6,030.0,000.0,038.9,032.4,018.9,0000.0,0014.68,0004.25,0003.23
2024-05-30 17:06:00,SystemResetWarning,0829.3,5.01,000.00,030.6,030.0,000.0,038.9,032.4,018.8,0000.0,0014.42,0004.29,0003.23
2024-05-30 17:07:00,SystemResetWarning,0829.3,4.99,000.00,030.6,029.1,000.0,038.9,031.8,018.5,0000.0,0013.20,0004.31,0003.23
2024-05-30 17:08:00,SystemResetWarning,0829.2,5.00,000.00,030.1,026.7,000.0,038.9,030.7,019.2,0000.0,0012.60,0004.30,0003.23
2024-05-30 17:09:00,SystemResetWarning,0829.2,5.02,000.00,029.8,026.3,000.0,038.9,030.4,019.4,0000.0,0012.43,0004.27,0003.23
2024-05-30 17:10:00,SystemResetWarning,0829.2,4.99,000.00,029.7,026.7,000.0,038.7,030.5,020.3,0000.0,0011.85,0004.24,0003.23
2024-05-30 17:11:00,SystemResetWarning,0829.3,5.00,000.00,029.6,027.2,000.0,038.6,030.8,021.1,0000.0,0011.76,0004.30,0003.24
2024-05-30 17:12:00,SystemResetWarning,0829.3,5.01,000.00,029.7,027.6,000.0,038.5,031.0,020.0,0000.0,0011.62,0004.29,0003.24
2024-05-30 17:13:00,SystemResetWarning,0829.3,5.00,000.00,029.7,027.9,000.0,038.4,031.1,020.3,0000.0,0011.79,0004.25,0003.25
2024-05-30 17:14:00,SystemResetWarning,0829.4,5.00,000.00,029.7,028.2,000.0,038.4,031.3,020.5,0000.0,0011.83,0004.26,0003.25
2024-05-30 17:15:00,SystemResetWarning,0829.4,5.00,000.00,029.7,028.4,000.0,038.4,031.4,020.1,0000.0,0011.80,0004.27,0003.25
2024-05-30 17:16:00,SystemResetWarning,0829.4,5.00,000.00,029.8,028.6,000.0,038.3,031.4,021.4,0000.0,0011.67,0004.31,0003.25
2024-05-30 17:17:00,SystemResetWarning,0829.3,5.00,000.00,029.8,028.8,000.0,038.3,031.5,020.4,0000.0,0010.85,0004.34,0003.27
2024-05-30 17:18:00,SystemResetWarning,0829.4,4.99,000.00,029.9,028.9,000.0,038.3,031.6,019.4,0000.0,0010.61,0004.34,0003.28
2024-05-30 17:19:00,SystemResetWarning,0829.3,4.99,000.00,029.9,029.1,000.0,038.3,031.6,019.9,0000.0,0010.93,0004.41,0003.30
2024-05-30 17:20:00,SystemResetWarning,0829.3,4.99,000.00,029.9,029.2,000.0,038.3,031.7,019.2,0000.0,0011.71,0004.45,0003.31
2024-05-30 17:21:00,SystemResetWarning,0829.3,5.00,000.00,030.0,029.3,000.0,038.3,031.7,019.0,0000.0,0012.60,0004.53,0003.33
2024-05-30 17:22:00,SystemResetWarning,0829.3,5.01,000.00,030.0,029.3,000.0,038.3,031.8,019.1,0000.0,0012.49,0004.51,0003.33
2024-05-30 17:23:00,SystemResetWarning,0829.4,5.01,000.00,030.1,029.4,000.0,038.3,031.9,019.2,0000.0,0012.59,0004.54,0003.35
2024-05-30 17:24:00,SystemResetWarning,0829.3,5.00,000.00,030.1,029.5,000.0,038.4,031.9,019.0,0000.0,0012.97,0004.58,0003.36
2024-05-30 17:25:00,SystemResetWarning,0829.3,5.00,000.00,030.2,029.5,000.0,038.4,031.9,019.2,0000.0,0012.87,0004.58,0003.37
2024-05-30 17:26:00,SystemResetWarning,0829.3,4.99,000.00,030.2,029.6,000.0,038.4,032.0,018.6,0000.0,0013.51,0004.56,0003.38
2024-05-30 17:27:00,SystemResetWarning,0829.3,4.99,000.00,030.2,029.6,000.0,038.4,032.0,018.5,0000.0,0013.68,0004.59,0003.40
2024-05-30 17:28:00,SystemResetWarning,0829.3,5.00,000.00,030.3,029.7,000.0,038.4,032.0,018.8,0000.0,0013.98,0004.58,0003.41
2024-05-30 17:29:00,SystemResetWarning,0829.4,5.01,000.00,030.3,029.7,000.0,038.5,032.0,019.0,0000.0,0014.30,0004.65,0003.42
2024-05-30 17:30:00,SystemResetWarning,0829.3,5.01,000.00,030.4,029.8,000.0,038.5,032.1,018.9,0000.0,0014.35,0004.68,0003.41
2024-05-30 17:31:00,SystemResetWarning,0829.3,4.99,000.00,030.4,029.8,000.0,038.5,032.2,019.4,0000.0,0013.53,0004.68,0003.43
2024-05-30 17:32:00,SystemResetWarning,0829.4,4.98,000.00,030.3,029.0,000.0,038.6,031.7,019.4,0000.0,0012.82,0004.65,0003.42
2024-05-30 17:33:00,SystemResetWarning,0829.2,5.01,000.00,029.9,026.6,000.0,038.6,030.5,020.1,0000.0,0013.08,0004.66,0003.43
2024-05-30 17:34:00,SystemResetWarning,0829.2,5.01,000.00,029.5,026.0,000.0,038.6,030.1,020.4,0000.0,0014.05,0004.70,0003.44
2024-05-30 17:35:00,SystemResetWarning,0829.2,5.01,000.00,029.4,026.5,000.0,038.4,030.3,020.5,0000.0,0013.56,0004.68,0003.44
2024-05-30 17:36:00,SystemResetWarning,0829.2,4.98,000.00,029.4,026.9,000.0,038.3,030.5,020.1,0000.0,0013.48,0004.69,0003.44
2024-05-30 17:37:00,SystemResetWarning,0829.3,5.00,000.00,029.4,027.3,000.0,038.2,030.7,019.8,0000.0,0012.91,0004.74,0003.44
2024-05-30 17:38:00,SystemResetWarning,0829.2,5.02,000.00,029.4,027.7,000.0,038.1,030.9,019.5,0000.0,0013.11,0004.75,0003.44
2024-05-30 17:39:00,SystemResetWarning,0829.3,5.00,000.00,029.5,028.0,000.0,038.1,031.0,019.8,0000.0,0013.39,0004.78,0003.43
2024-05-30 17:40:00,SystemResetWarning,0829.2,5.00,000.00,029.5,028.2,000.0,038.0,031.1,019.7,0000.0,0013.56,0004.77,0003.43
2024-05-30 17:41:00,SystemResetWarning,0829.2,5.00,000.00,029.5,028.4,000.0,038.0,031.2,019.7,0000.0,0013.54,0004.75,0003.44
2024-05-30 17:42:00,SystemResetWarning,0829.2,5.00,000.00,029.6,028.6,000.0,038.0,031.3,019.2,0000.0,0015.87,0004.71,0003.43
2024-05-30 17:43:00,SystemResetWarning,0829.2,5.00,000.00,029.6,028.8,000.0,038.0,031.4,019.9,0000.0,0016.77,0004.79,0003.44
2024-05-30 17:44:00,SystemResetWarning,0829.2,5.00,000.00,029.7,028.9,000.0,038.0,031.4,019.7,0000.0,0016.18,0004.75,0003.44
2024-05-30 17:45:00,SystemResetWarning,0829.2,5.00,000.00,029.7,029.0,000.0,038.1,031.5,019.8,0000.0,0015.12,0004.71,0003.44
2024-05-30 17:46:00,SystemResetWarning,0829.2,5.00,000.00,029.8,029.1,000.0,038.1,031.6,019.7,0000.0,0015.33,0004.74,0003.45
2024-05-30 17:47:00,SystemResetWarning,0829.2,5.00,000.00,029.8,029.2,000.0,038.1,031.6,020.2,0000.0,0015.61,0004.74,0003.45
2024-05-30 17:48:00,SystemResetWarning,0829.2,4.99,000.00,029.9,029.3,000.0,038.1,031.7,019.9,0000.0,0016.10,0004.75,0003.46
2024-05-30 17:49:00,SystemResetWarning,0829.3,4.99,000.00,029.9,029.4,000.0,038.1,031.7,022.1,0000.0,0017.87,0004.78,0003.47
2024-05-30 17:50:00,SystemResetWarning,0829.3,4.99,000.00,030.0,029.4,000.0,038.2,031.8,020.4,0000.0,0017.59,0004.76,0003.47
2024-05-30 17:51:00,SystemResetWarning,0829.2,5.00,000.00,030.0,029.5,000.0,038.2,031.8,019.7,0000.0,0017.63,0004.77,0003.48
2024-05-30 17:52:00,SystemResetWarning,0829.2,5.01,000.00,030.1,029.5,000.0,038.2,031.9,019.8,0000.0,0018.04,0004.78,0003.50
2024-05-30 17:53:00,SystemResetWarning,0829.2,5.02,000.00,030.1,029.6,000.0,038.3,031.9,019.5,0000.0,0017.29,0004.86,0003.53
2024-05-30 17:54:00,SystemResetWarning,0829.2,5.00,000.00,030.2,029.6,000.0,038.3,031.9,020.1,0000.0,0016.25,0004.89,0003.56
2024-05-30 17:55:00,SystemResetWarning,0829.2,4.99,000.00,030.2,029.7,000.0,038.3,032.0,021.0,0000.0,0017.40,0004.91,0003.58
2024-05-30 17:56:00,SystemResetWarning,0829.2,5.00,000.00,030.2,029.7,000.0,038.3,032.0,020.4,0000.0,0019.90,0005.00,0003.60
2024-05-30 17:57:00,SystemResetWarning,0829.2,5.01,000.00,030.3,029.7,000.0,038.4,032.0,019.5,0000.0,0020.76,0004.99,0003.61
2024-05-30 17:58:00,SystemResetWarning,0829.2,4.99,000.00,030.1,028.0,000.0,038.5,031.2,019.7,0000.0,0020.46,0004.98,0003.61
2024-05-30 17:59:00,SystemResetWarning,0829.1,5.01,000.00,029.8,027.1,000.0,038.5,030.7,020.1,0000.0,0021.08,0004.98,0003.62
